Location: Lamoine Observatory
(44.4551°N, 68.3470°W)
Time: 01:27:39
(UTC-04:00)

Daily predictions for brighter satellites

Satellite Brightness Start Highest point End
(mag) Time Altitude Azimuth Time Altitude Azimuth Time Altitude Azimuth
Cosmos 1346 Rocket 3.9 00:07:28 10° NNW 00:10:08 41° NNW 00:10:08 41° NNW
Cosmos 1459 Rocket 3.9 00:11:20 61° ESE 00:11:51 64° E 00:17:52 10° NNE
Cosmos 44 Rocket 3.4 00:07:55 10° NNW 00:13:00 73° NE 00:13:00 73° NE
Cosmos 2369 Rocket 3.0 00:11:23 34° WSW 00:13:18 46° WNW 00:18:43 10° NNE
CZ-2C R/B 3.3 00:09:45 10° NNE 00:14:23 41° E 00:14:23 41° E
Cosmos 1241 Rocket 4.5 00:08:25 10° NNW 00:14:56 87° ENE 00:16:04 64° SE
Lacrosse 5 3.1 00:10:58 10° W 00:15:45 39° NNW 00:20:33 10° NE
Cosmos 2016 Rocket 4.3 00:16:27 49° ESE 00:16:58 50° E 00:22:50 10° NNE
Cosmos 1602 Rocket 4.1 00:14:41 10° NNW 00:18:24 56° NW 00:18:24 56° NW
CRYOSAT 2 4.4 00:15:03 10° N 00:19:36 73° NE 00:19:36 73° NE
Cosmos 2061 Rocket 3.9 00:22:04 66° SSE 00:22:54 77° E 00:29:20 10° N
Cosmos 1626 Rocket 4.2 00:18:34 10° NNW 00:22:15 53° NW 00:22:15 53° NW
Cosmos 2227 Rocket 4.1 00:22:19 10° N 00:26:48 23° NE 00:30:21 14° E
Cosmos 1743 4.5 00:28:23 27° NE 00:28:23 27° NE 00:30:34 10° NNE
Cosmos 1455 Rocket 4.3 00:27:32 33° WNW 00:27:32 33° WNW 00:31:15 10° N
Cosmos 2219 3.2 00:21:39 10° NNW 00:27:18 69° ENE 00:27:49 65° E
Cosmos 1656 Rocket 4.0 00:28:40 52° E 00:28:40 52° E 00:33:47 10° NE
Cosmos 1802 Rocket 3.9 00:29:29 68° SE 00:30:10 76° E 00:36:28 10° N
Cosmos 1066 Rocket 4.0 00:24:54 10° N 00:30:17 79° E 00:30:22 79° E
ALOS 2 3.8 00:35:43 35° WNW 00:35:43 35° WNW 00:38:57 10° NNW
Cosmos 2173 Rocket 3.9 00:34:21 70° SSW 00:35:10 88° W 00:41:36 10° N
Helios 1A Rocket 3.8 00:33:25 10° NNE 00:36:29 48° NNE 00:36:29 48° NNE
SeaSat 1 4.4 00:35:12 16° E 00:37:51 24° NE 00:41:44 10° N
Cosmos 44 3.7 00:34:56 10° NNW 00:40:07 60° NE 00:40:25 58° ENE
Cosmos 1943 Rocket 2.3 00:40:42 58° W 00:41:22 63° WNW 00:46:58 10° NNE
Cosmos 2297 Rocket 4.1 00:43:14 10° N 00:47:48 24° NE 00:51:54 12° E
Cosmos 1975 4.2 00:49:03 35° NW 00:49:03 35° NW 00:52:02 10° N
MOS 1-B Rocket 4.2 00:48:55 55° SW 00:49:38 58° W 00:56:32 10° NNW
Cosmos 1725 Rocket 4.0 00:54:00 61° SE 00:54:43 66° E 01:00:51 10° NNE
CZ-4B R/B 4.2 00:57:07 12° NW 00:57:07 12° NW 00:57:30 10° NW
NOSS 3-3 (A) 3.9 00:57:48 69° SSE 00:58:25 75° SE 01:05:10 10° NE
NOSS 3-3 (C) 3.9 00:57:54 69° SSE 00:58:30 74° ESE 01:05:14 10° NE
Cosmos 1606 Rocket 4.1 01:04:00 57° NNE 01:04:00 57° NNE 01:07:30 10° N
Cosmos 968 Rocket 4.2 00:58:31 10° NNW 01:02:45 41° W 01:02:45 41° W
H-2A R/B 4.1 01:03:09 10° N 01:07:04 29° WNW 01:07:12 29° WNW
Tsikada Rocket 3.9 01:03:59 10° N 01:10:20 90° E 01:11:19 67° S
Cosmos 1570 Rocket 3.9 01:16:53 79° ESE 01:16:55 79° ESE 01:22:17 10° NNE
ATLAS 2AS CENTAUR R/B 3.5 01:10:21 10° NW 01:17:43 41° WSW 01:18:13 40° WSW
ATLAS CENTAUR R/B 3.4 01:21:49 24° E 01:21:49 24° E 01:25:10 10° ENE
USA 234 4.4 01:16:09 10° NE 01:22:09 40° NNW 01:28:08 10° W
Cosmos 2058 Rocket 3.3 01:29:02 67° N 01:29:02 67° N 01:32:58 10° N
CZ-2C R/B 3.5 01:31:03 46° WNW 01:31:03 46° WNW 01:35:12 10° NNW
BREEZE-M DEB (TANK) 3.6 01:17:44 10° WNW 01:33:14 86° SSW 01:34:55 44° ESE
Cosmos 1726 Rocket 4.3 01:39:05 45° NW 01:39:05 45° NW 01:42:43 10° N
Lacrosse 5 rocket 4.2 01:38:05 10° NNW 01:39:42 12° N 01:41:20 10° NNE
PSLV R/B 3.9 01:39:10 10° NNE 01:43:32 62° E 01:43:32 62° E
Meteor 2-17 Rocket 4.4 01:50:59 60° SSW 01:52:09 78° W 01:58:17 10° N
CZ-2C R/B 3.9 01:50:25 10° N 01:54:50 28° WNW 01:55:54 26° W
Cosmos 1697 Rocket 4.0 01:55:44 26° SE 01:57:05 29° ESE 02:01:53 10° NE
Cosmos 1707 3.8 01:53:24 10° N 01:57:06 38° ENE 01:57:23 37° E
Cosmos 2233 Rocket 4.0 01:56:13 55° SW 01:57:25 68° W 02:03:33 10° N
Cosmos 1340 4.5 01:55:07 10° NNW 01:57:04 24° NW 01:57:04 24° NW
Cosmos 1464 Rocket 4.3 01:56:42 41° SSE 01:58:43 60° E 02:04:58 10° NNE
Lacrosse 5 4.3 01:56:09 10° NW 01:59:55 20° N 02:03:43 10° NE
Cosmos 2082 3.5 01:57:05 10° NNW 02:02:44 80° WSW 02:03:45 60° S
Cosmos 1814 Rocket 4.5 02:03:01 45° SE 02:03:58 50° ESE 02:09:09 10° NNE
Resurs 1-4 Rocket 4.4 02:01:35 10° NE 02:04:25 14° E 02:07:14 10° ESE
Okean 3 Rocket 4.4 02:01:42 10° N 02:05:56 45° ENE 02:06:54 38° ESE
Cosmos 1980 Rocket 4.0 02:04:33 17° SE 02:06:37 21° E 02:10:46 10° NE
Cosmos 220 Rocket 3.9 02:02:57 10° NNW 02:07:00 77° NW 02:07:00 77° NW
BREEZE-M DEB (TANK) 2.9 02:07:31 84° WNW 02:07:35 85° NNW 02:11:04 10° ENE
NOSS 2-1 (D) 3.5 02:11:08 68° E 02:11:08 68° E 02:15:22 10° NE
Cosmos 2227 Rocket 2.1 02:05:44 10° NNW 02:11:21 65° WSW 02:12:07 58° SSW
AQUA 4.4 02:07:39 10° NNE 02:12:16 47° E 02:13:12 41° SE
NOSS 2-1 (C) 3.5 02:12:32 69° E 02:12:32 69° E 02:16:49 10° NE
Cosmos 2298 Rocket 3.9 02:08:58 10° NNW 02:14:15 72° WSW 02:14:58 62° SSW
SeaSat 1 2.4 02:14:59 59° WSW 02:15:02 59° WSW 02:19:55 10° NW
Cosmos 2228 4.0 02:18:29 34° WNW 02:18:29 34° WNW 02:22:15 10° N
Cosmos 990 Rocket 4.4 02:15:20 10° NNW 02:20:34 63° ENE 02:23:27 26° SE
BREEZE-M DEB (TANK) 3.4 02:20:47 52° SSW 02:21:50 65° SSE 02:24:57 10° ENE
Cosmos 858 Rocket 4.4 02:20:21 10° NNW 02:25:35 71° WSW 02:26:35 56° SSW
NPP 3.6 02:20:12 10° NNE 02:25:36 78° ESE 02:27:09 48° S
Cosmos 1513 Rocket 4.4 02:23:58 42° S 02:26:09 79° E 02:32:14 10° N
Cosmos 468 Rocket 3.9 02:25:46 58° SSW 02:26:49 89° WNW 02:32:00 10° NNE
NOSS 2-1 (E) 3.3 02:27:12 80° SW 02:27:27 89° NW 02:32:07 10° NE
Cosmos 2297 Rocket 2.2 02:26:42 10° NNW 02:32:17 62° WSW 02:33:38 48° SSW
Cosmos 2278 4.0 02:32:26 41° WSW 02:34:07 56° WNW 02:39:43 10° NNE
Cosmos 2369 3.9 02:34:50 42° WSW 02:36:33 60° WNW 02:42:10 10° NNE
Meteor 2-5 Rocket 3.9 02:33:27 10° NNW 02:39:16 63° W 02:41:09 42° SSW
NOSS 3-4 (A) 3.7 02:34:19 10° NW 02:41:15 70° WSW 02:48:35 10° SSE
NOSS 3-4 (C) 3.7 02:34:25 10° NW 02:41:24 70° WSW 02:48:46 10° SSE
Cosmos 1378 3.8 02:39:10 10° N 02:42:53 51° ENE 02:44:05 35° SE
Cosmos 1891 Rocket 4.4 02:42:22 40° SSW 02:44:43 80° W 02:50:54 10° N
USA 161 2.6 02:45:38 40° ENE 02:45:38 40° ENE 02:48:15 10° N
SL-08 R/B 3.3 02:45:13 51° SW 02:45:54 57° W 02:50:30 10° NNW
Cosmos 2150 Rocket 4.5 02:46:30 10° NW 02:51:18 38° WSW 02:51:41 37° WSW
Cosmos 405 Rocket 3.6 02:47:38 10° NNW 02:51:02 36° W 02:51:02 36° W
Okean O Rocket 4.3 02:50:50 10° ENE 02:52:43 12° E 02:54:35 10° ESE
Cosmos 1898 Rocket 4.1 02:48:35 10° NW 02:53:28 37° WSW 02:53:57 36° WSW
SL-16 R/B 4.3 02:50:45 10° SE 02:54:38 19° E 02:58:33 10° NE
Cosmos 1408 Rocket 3.8 02:50:25 10° N 02:54:48 68° E 02:57:04 28° SSE
Cosmos 841 Rocket 3.6 02:54:31 36° S 02:56:40 73° ESE 03:01:57 10° NNE
ERS-2 2.1 02:54:30 10° NNE 02:58:15 87° ESE 02:58:56 58° S
Cosmos 1125 Rocket 4.0 02:54:36 10° NNW 02:59:45 58° ENE 03:04:52 10° SE
ATLAS CENTAUR R/B 2.3 02:58:09 34° WSW 03:00:00 53° NW 03:04:53 10° NNE
Cosmos 1766 Rocket 3.7 02:55:52 10° N 03:00:17 72° E 03:02:45 26° SSE
Cosmos 1763 Rocket 3.4 02:58:47 38° SSW 03:00:50 88° ESE 03:06:02 10° NNE
Cosmos 2034 Rocket 4.1 02:58:39 34° SSW 03:01:20 63° W 03:07:29 10° N
Geosat 4.0 02:56:32 10° NNE 03:01:36 83° ESE 03:03:42 36° SSW
Cosmos 1937 Rocket 3.9 02:56:47 10° NW 03:01:39 42° WSW 03:02:42 38° SW
Nadezhda 4 Rocket 3.9 02:57:33 10° N 03:03:45 78° W 03:07:44 24° S
CBERS 1 LM4 rocket 4.3 02:59:42 10° N 03:04:30 76° WNW 03:06:26 37° SSW
Cosmos 1656 3.9 03:03:53 34° SW 03:06:18 62° WNW 03:11:55 10° NNE
Cosmos 1766 3.2 03:06:27 48° SSW 03:07:29 80° W 03:11:26 10° N
IRS-1C 4.3 03:06:23 10° N 03:11:40 61° WNW 03:14:05 32° SW
CZ-2D R/B 2.6 03:07:04 10° NNE 03:12:27 57° E 03:16:18 19° S
Meteor 1-24 Rocket 3.9 03:07:45 10° NNW 03:13:22 56° W 03:16:29 27° SSW
SL-24 R/B 4.1 03:13:28 23° S 03:16:26 77° WSW 03:20:53 10° NNW
Cosmos 1461 3.2 03:13:11 10° NNW 03:17:20 64° NE 03:21:18 10° SE
Meteor 1-22 Rocket 4.5 03:15:41 28° SSW 03:18:56 65° WNW 03:25:02 10° N
SL-16 R/B 2.5 03:13:59 10° SSE 03:20:09 85° WSW 03:26:22 10° NNW
Lacrosse 5 rocket 4.1 03:18:04 10° NNW 03:20:16 15° NNE 03:22:29 10° NE
ARIANE 5 R/B 2.5 03:16:07 10° NNE 03:21:17 88° ESE 03:24:27 24° SSW
Cosmos 540 Rocket 4.2 03:18:51 18° S 03:22:29 48° ESE 03:27:27 10° NNE
UNKNOWN OBJECT B 3.8 03:18:47 10° NNE 03:22:31 42° E 03:25:05 17° SSE
ERS-1 4.5 03:17:52 10° N 03:22:55 70° WNW 03:25:34 28° SSW
Cosmos 1441 Rocket 3.4 03:19:38 10° NNW 03:23:33 55° W 03:25:00 34° SSW
Cosmos 2227 4.2 03:19:45 10° NNW 03:25:33 86° WSW 03:31:18 10° SSE
Cosmos 1544 4.2 03:25:30 16° SSE 03:28:06 41° E 03:31:34 10° NNE
GEOS 3 Rocket 3.7 03:25:26 10° SE 03:30:38 81° NE 03:35:50 10° NW
In-Cosmos 22 4.0 03:27:29 10° NNW 03:32:47 78° W 03:37:53 11° S
Milstar 3 Cent rocket 3.8 03:33:20 16° S 03:34:08 16° S 03:38:07 10° SE
Cosmos 2026 Rocket 4.2 03:28:06 10° N 03:34:28 77° E 03:40:43 10° SSE
EO 1 Del DPAF 3.2 03:31:54 17° S 03:34:51 81° WSW 03:38:46 10° NNW
Cosmos 1805 3.2 03:32:58 26° S 03:35:07 90° W 03:39:04 10° N
ADEOS 4.1 03:32:25 10° N 03:37:22 44° WNW 03:40:16 23° SW
UNK 3.6 03:35:10 10° WNW 03:38:52 35° N 03:40:56 10° ENE
Cosmos 1697 Rocket 3.3 03:37:28 22° WSW 03:40:49 45° WNW 03:46:16 10° NNE
Cosmos 1758 3.3 03:41:25 25° SSW 03:43:39 65° W 03:47:39 10° N
Lacrosse 5 4.2 03:40:15 10° NW 03:44:25 24° NNE 03:48:35 10° ENE
Resurs 1-4 Rocket 2.1 03:39:34 10° N 03:44:51 76° WNW 03:48:51 18° SSW
Cosmos 1634 Rocket 4.0 03:40:42 17° SSW 03:45:42 74° W 03:52:02 10° N
Cosmos 2195 Rocket 4.4 03:39:44 10° N 03:45:53 78° W 03:51:58 10° S
Cosmos 1953 2.5 03:44:28 24° SSW 03:46:45 58° W 03:50:48 10° N
Cosmos 1980 Rocket 2.4 03:46:20 21° SW 03:50:07 60° WNW 03:55:46 10° NNE
Cosmos 2360 Rocket 4.3 03:46:55 10° SSE 03:51:06 22° E 03:55:17 10° NE
IRS-1D 3.8 03:48:35 10° N 03:53:24 52° WNW 03:56:56 18° SW
Cosmos 1092 Rocket 4.5 03:49:47 10° NNW 03:55:39 43° W 04:00:54 13° SSW
Cosmos 1674 2.7 03:54:06 10° N 03:57:53 81° E 04:01:38 10° S
Meteor 1-21 Rocket 4.4 03:54:37 10° NNW 04:00:25 58° W 04:06:12 10° S
Cosmos 2322 Rocket 2.4 03:58:01 12° SSW 04:03:13 74° ESE 04:08:50 10° NNE
Cosmos 332 Rocket 3.8 04:02:43 15° SSW 04:06:42 74° WNW 04:11:34 10° NNE
Cosmos 1500 Rocket 3.6 04:02:26 10° NNW 04:06:47 62° W 04:11:04 10° S
Cosmos 1743 Rocket 4.2 04:08:35 10° NNW 04:12:35 36° W 04:16:35 10° SSW
Cosmos 1428 Rocket 4.4 04:11:58 10° N 04:18:08 77° W 04:24:12 10° S
Cosmos 372 Rocket 4.2 04:15:15 10° NNW 04:20:08 46° WSW 04:24:58 10° S
Cosmos-2242 4.3 04:19:53 13° WSW 04:22:51 25° WNW 04:26:26 10° NNW
Cosmos 2221 3.2 04:19:42 10° S 04:23:53 57° E 04:28:07 10° NNE
Cosmos 2058 3.5 04:20:00 10° N 04:24:13 62° E 04:28:22 10° SSE
Aureole 1 Rocket 4.3 04:18:24 10° SSW 04:24:36 73° WNW 04:32:33 10° NNE
Cosmos 371 Rocket 3.3 04:20:37 10° SSW 04:25:24 72° WNW 04:30:15 10° NNE
RESURS DK-1 3.1 04:22:00 10° NW 04:25:42 32° WSW 04:29:23 10° S
Okean O Rocket 1.7 04:25:10 10° N 04:29:33 68° WNW 04:33:55 10° SSW
BREEZE-M DEB (TANK) 2.3 04:27:02 10° WNW 04:29:53 85° SSW 04:35:45 10° ESE
SL-14 R/B 4.0 04:29:29 10° N 04:33:22 57° E 04:37:10 10° SSE
Cosmos 2084 3.8 04:29:40 10° NW 04:33:43 68° NE 04:37:59 10° SE
Cosmos 1470 3.2 04:30:04 10° SSW 04:33:52 45° WNW 04:37:43 10° N
CZ-2C R/B 4.0 04:30:47 10° S 04:35:17 48° W 04:39:45 10° NNW
Cosmos 2279 Rocket 4.3 04:31:29 10° SSW 04:37:32 51° WNW 04:43:38 10° N
SL-16 R/B 2.3 04:32:33 10° SW 04:38:10 66° WNW 04:43:50 10° NNE
ATLAS CENTAUR R/B 4.1 04:37:39 10° WNW 04:40:12 14° NNW 04:42:43 10° N
PSLV R/B 4.3 04:39:44 10° N 04:43:23 41° WNW 04:46:56 10° SW
Cosmos 2263 Rocket 2.1 04:40:34 10° NNW 04:46:09 70° WSW 04:51:39 10° SSE
DELTA 2 R/B (1) 4.4 04:42:42 10° SW 04:47:48 38° SSE 04:52:57 10° E
PSLV R/B 4.0 04:44:27 10° NNE 04:48:40 65° E 04:52:54 10° S
COSMOS 2428 4.5 04:45:01 10° SSE 04:49:55 31° ESE 04:54:51 10° NE
ADEOS II 2.8 04:45:21 10° NNE 04:50:33 56° E 04:55:42 10° S
